User: anonymous   Login
Location: Morlupo
(42.1333°N, 12.5000°E)
Time: 03:38:01
(UTC+00:00)
Language:

STPSAT 2 (USA 217) - Orbit

View from above orbital plane
View from above orbital plane
View from above satellite
View from above satellite

Ground track
Ground track

The orbit data is extracted from the following two-line orbital elements,

1 37222U 10062A   20327.17177769 0.00000080  00000-0  10924-4 0    05
2 37222  71.9573 348.3948 0014419 335.9361  24.0638 14.78496448    06
Epoch (UTC): 22 November 2020 04:07:21
Eccentricity: 0.0014419
inclination: 71.9573°
perigee height: 624 km
apogee height: 644 km
right ascension of ascending node: 348.3948°
argument of perigee: 335.9361°
revolutions per day: 14.78496448
mean anomaly at epoch: 24.0638°
orbit number at epoch: 0

The dashed part of the orbit path shows where the satellite is in the earth's shadow,  

DLR